timestamp,wind_dir_avg,wind_spd_avg,wind_spd_max_dir,wind_spd_gust,battery_voltage,lat,long
2021-09-02 00:04:01+00:00,214.0,3.98,214.0,4.33,12.65,47.59359,-54.27349
2021-09-02 00:14:01+00:00,201.0,4.71,203.0,5.11,12.65,47.59359,-54.27349
2021-09-02 00:24:01+00:00,192.0,5.16,195.0,5.3,12.65,47.59359,-54.27349
2021-09-02 00:34:01+00:00,209.0,5.91,207.0,6.17,12.65,47.59359,-54.27349
2021-09-02 00:44:01+00:00,200.0,4.87,201.0,5.12,12.65,47.59359,-54.27349
2021-09-02 00:54:01+00:00,199.0,4.95,199.0,5.24,12.65,47.59359,-54.27349
2021-09-02 01:04:01+00:00,202.0,4.66,200.0,5.21,12.65,47.59359,-54.27349
2021-09-02 01:14:01+00:00,200.0,5.71,199.0,6.29,12.65,47.59359,-54.27349
2021-09-02 01:24:01+00:00,207.0,4.7,212.0,5.08,12.65,47.59359,-54.27349
2021-09-02 01:34:01+00:00,216.0,5.23,219.0,5.68,12.65,47.59359,-54.27349
2021-09-02 01:44:01+00:00,213.0,5.21,213.0,5.74,12.65,47.59359,-54.27349
2021-09-02 01:54:01+00:00,219.0,5.4,222.0,5.97,12.65,47.59359,-54.27349
2021-09-02 02:04:01+00:00,207.0,4.51,210.0,5.02,12.65,47.59359,-54.27349
2021-09-02 02:14:01+00:00,205.0,3.63,200.0,4.09,12.65,47.59359,-54.27349
2021-09-02 02:24:01+00:00,213.0,3.54,217.0,4.1,12.65,47.59359,-54.27349
2021-09-02 02:34:01+00:00,206.0,4.96,202.0,5.27,12.65,47.59359,-54.27349
2021-09-02 02:44:01+00:00,215.0,4.22,213.0,4.53,12.65,47.59359,-54.27349
2021-09-02 02:54:01+00:00,210.0,4.45,211.0,4.9,12.65,47.59359,-54.27349
2021-09-02 03:04:01+00:00,216.0,4.1,217.0,4.52,12.65,47.59359,-54.27349
2021-09-02 03:14:00+00:00,222.0,2.81,217.0,3.3,12.65,47.59359,-54.27349
2021-09-02 03:24:00+00:00,216.0,2.34,223.0,2.71,12.65,47.59359,-54.27349
2021-09-02 03:34:00+00:00,224.0,3.3,217.0,3.88,12.65,47.59359,-54.27349
2021-09-02 03:44:00+00:00,227.0,3.14,227.0,3.61,12.65,47.59359,-54.27349
2021-09-02 03:54:00+00:00,244.0,3.06,244.0,3.46,12.65,47.59359,-54.27349
2021-09-02 04:04:00+00:00,234.0,2.94,236.0,3.51,12.65,47.59359,-54.27349
2021-09-02 04:14:01+00:00,232.0,3.31,235.0,3.78,12.65,47.59359,-54.27349
2021-09-02 04:24:01+00:00,236.0,4.04,248.0,5.06,12.65,47.59359,-54.27349
2021-09-02 04:34:01+00:00,234.0,4.1,234.0,5.13,12.65,47.59359,-54.27349
2021-09-02 04:44:01+00:00,230.0,3.0,238.0,3.51,12.65,47.59359,-54.27349
2021-09-02 04:54:01+00:00,236.0,3.41,240.0,4.13,12.65,47.59359,-54.27349
2021-09-02 05:04:01+00:00,233.0,3.52,239.0,4.23,12.65,47.59359,-54.27349
2021-09-02 05:14:00+00:00,233.0,3.02,241.0,3.86,12.57,47.59359,-54.27349
2021-09-02 05:24:00+00:00,230.0,2.61,231.0,3.04,12.57,47.59359,-54.27349
2021-09-02 05:34:00+00:00,238.0,1.93,232.0,2.27,12.57,47.59359,-54.27349
2021-09-02 05:44:00+00:00,238.0,2.12,230.0,2.48,12.57,47.59359,-54.27349
2021-09-02 05:54:00+00:00,251.0,1.12,250.0,1.38,12.57,47.59359,-54.27349
2021-09-02 06:04:00+00:00,299.0,0.41,319.0,0.69,12.57,47.59359,-54.27349
2021-09-02 06:14:00+00:00,168.0,1.51,169.0,1.62,12.57,47.59359,-54.27349
2021-09-02 06:24:00+00:00,173.0,1.59,175.0,1.73,12.57,47.59359,-54.27349
2021-09-02 06:34:00+00:00,191.0,2.24,192.0,2.38,12.57,47.59359,-54.27349
2021-09-02 06:44:00+00:00,190.0,1.73,189.0,1.86,12.57,47.59359,-54.27349
2021-09-02 06:54:00+00:00,202.0,1.7,203.0,1.9,12.57,47.59359,-54.27349
2021-09-02 07:04:00+00:00,189.0,1.42,188.0,1.57,12.57,47.59359,-54.27349
2021-09-02 07:14:01+00:00,193.0,1.78,199.0,1.88,12.57,47.59359,-54.27349
2021-09-02 07:24:01+00:00,191.0,2.49,192.0,2.62,12.57,47.59359,-54.27349
2021-09-02 07:34:01+00:00,204.0,3.01,204.0,3.23,12.57,47.59359,-54.27349
2021-09-02 07:44:01+00:00,204.0,3.35,205.0,3.68,12.57,47.59359,-54.27349
2021-09-02 07:54:01+00:00,216.0,3.38,217.0,3.7,12.57,47.59359,-54.27349
2021-09-02 08:04:01+00:00,207.0,2.62,207.0,2.97,12.57,47.59359,-54.27349
2021-09-02 08:14:01+00:00,210.0,2.37,211.0,2.62,12.49,47.59359,-54.27349
2021-09-02 08:24:01+00:00,209.0,2.55,216.0,2.81,12.49,47.59359,-54.27349
2021-09-02 08:34:01+00:00,224.0,2.57,225.0,2.89,12.49,47.59359,-54.27349
2021-09-02 08:44:01+00:00,232.0,2.43,242.0,2.79,12.49,47.59359,-54.27349
2021-09-02 08:54:01+00:00,218.0,3.08,223.0,3.38,12.49,47.59359,-54.27349
2021-09-02 09:04:01+00:00,225.0,2.53,225.0,2.7,12.49,47.59359,-54.27349
2021-09-02 09:14:01+00:00,214.0,1.9,213.0,2.11,12.49,47.59359,-54.27349
2021-09-02 09:24:01+00:00,236.0,1.27,232.0,1.55,12.49,47.59359,-54.27349
2021-09-02 09:34:01+00:00,255.0,2.08,259.0,2.28,12.49,47.59359,-54.27349
2021-09-02 09:44:01+00:00,295.0,2.28,298.0,2.55,12.49,47.59359,-54.27349
2021-09-02 09:54:01+00:00,286.0,2.55,286.0,2.75,12.49,47.59359,-54.27349
2021-09-02 10:04:01+00:00,295.0,2.32,298.0,2.75,12.49,47.59359,-54.27349
2021-09-02 10:14:01+00:00,293.0,2.34,291.0,2.69,12.49,47.59359,-54.27349
2021-09-02 10:24:01+00:00,249.0,3.52,248.0,3.74,12.49,47.59359,-54.27349
2021-09-02 10:34:01+00:00,199.0,2.73,200.0,2.89,12.49,47.59359,-54.27349
2021-09-02 10:44:01+00:00,191.0,3.44,196.0,3.68,12.49,47.59359,-54.27349
2021-09-02 10:54:01+00:00,180.0,2.17,184.0,2.53,12.49,47.59359,-54.27349
2021-09-02 11:04:01+00:00,182.0,3.42,181.0,3.74,12.49,47.59359,-54.27349
2021-09-02 11:14:01+00:00,193.0,4.28,195.0,4.45,13.13,47.59359,-54.27349
2021-09-02 11:24:01+00:00,198.0,4.0,197.0,4.26,13.13,47.59359,-54.27349
2021-09-02 11:34:01+00:00,201.0,3.68,203.0,3.99,13.13,47.59359,-54.27349
2021-09-02 11:44:01+00:00,200.0,3.49,200.0,3.61,13.13,47.59359,-54.27349
2021-09-02 11:54:01+00:00,211.0,2.41,213.0,2.62,13.13,47.59359,-54.27349
2021-09-02 12:04:01+00:00,215.0,1.77,220.0,1.94,13.13,47.59359,-54.27349
2021-09-02 12:14:01+00:00,214.0,1.4,220.0,1.53,13.29,47.59359,-54.27349
2021-09-02 12:24:01+00:00,220.0,2.08,223.0,2.35,13.29,47.59359,-54.27349
2021-09-02 12:34:01+00:00,200.0,1.26,207.0,1.57,13.29,47.59359,-54.27349
2021-09-02 12:44:01+00:00,208.0,1.88,209.0,2.09,13.29,47.59359,-54.27349
2021-09-02 12:54:01+00:00,196.0,1.62,195.0,1.84,13.29,47.59359,-54.27349
2021-09-02 13:04:01+00:00,206.0,2.01,210.0,2.15,13.29,47.59359,-54.27349
2021-09-02 13:14:01+00:00,188.0,1.41,189.0,1.48,13.6,47.59359,-54.27349
2021-09-02 13:24:01+00:00,203.0,1.52,204.0,1.77,13.6,47.59359,-54.27349
2021-09-02 13:34:01+00:00,206.0,0.72,204.0,0.82,13.6,47.59359,-54.27349
2021-09-02 13:44:01+00:00,280.0,0.33,261.0,0.67,13.6,47.59359,-54.27349
2021-09-02 13:54:01+00:00,176.0,0.72,193.0,0.96,13.6,47.59359,-54.27349
2021-09-02 14:04:01+00:00,198.0,2.45,202.0,2.77,13.6,47.59359,-54.27349
2021-09-02 14:14:01+00:00,206.0,3.09,207.0,3.23,13.84,47.59359,-54.27349
2021-09-02 14:24:01+00:00,200.0,3.75,200.0,4.06,13.84,47.59359,-54.27349
2021-09-02 14:34:01+00:00,195.0,3.93,195.0,4.29,13.84,47.59359,-54.27349
2021-09-02 14:44:01+00:00,199.0,3.69,201.0,3.98,13.84,47.59359,-54.27349
2021-09-02 14:54:01+00:00,208.0,3.18,209.0,3.64,13.84,47.59359,-54.27349
2021-09-02 15:04:01+00:00,208.0,3.42,209.0,3.62,13.84,47.59359,-54.27349
2021-09-02 15:14:01+00:00,218.0,2.71,218.0,3.22,13.84,47.59359,-54.27349
2021-09-02 15:24:01+00:00,227.0,3.07,227.0,3.3,13.84,47.59359,-54.27349
2021-09-02 15:34:01+00:00,227.0,3.35,226.0,3.71,13.84,47.59359,-54.27349
2021-09-02 15:44:01+00:00,226.0,3.83,229.0,4.38,13.84,47.59359,-54.27349
2021-09-02 15:54:01+00:00,214.0,3.46,216.0,3.78,13.84,47.59359,-54.27349
2021-09-02 16:04:01+00:00,217.0,3.14,218.0,3.35,13.84,47.59359,-54.27349
2021-09-02 16:14:01+00:00,217.0,3.69,216.0,4.25,13.76,47.59359,-54.27349
2021-09-02 16:24:01+00:00,223.0,3.29,222.0,4.05,13.76,47.59359,-54.27349
2021-09-02 16:34:01+00:00,216.0,3.48,216.0,3.92,13.76,47.59359,-54.27349
2021-09-02 16:44:01+00:00,210.0,4.27,212.0,4.58,13.76,47.59359,-54.27349
2021-09-02 16:54:01+00:00,213.0,3.24,211.0,3.6,13.76,47.59359,-54.27349
2021-09-02 17:04:01+00:00,213.0,3.59,213.0,4.13,13.76,47.59359,-54.27349
2021-09-02 17:14:01+00:00,200.0,3.63,203.0,4.19,13.92,47.59359,-54.27349
2021-09-02 17:24:01+00:00,215.0,4.76,216.0,5.15,13.92,47.59359,-54.27349
2021-09-02 17:34:01+00:00,216.0,4.23,212.0,4.89,13.92,47.59359,-54.27349
2021-09-02 17:44:01+00:00,213.0,4.01,221.0,4.87,13.92,47.59359,-54.27349
2021-09-02 17:54:01+00:00,211.0,4.81,214.0,5.52,13.92,47.59359,-54.27349
2021-09-02 18:04:01+00:00,217.0,5.46,223.0,6.29,13.92,47.59359,-54.27349
2021-09-02 18:14:01+00:00,218.0,5.78,226.0,6.34,13.92,47.59359,-54.27349
2021-09-02 18:24:01+00:00,217.0,5.48,218.0,5.89,13.92,47.59359,-54.27349
2021-09-02 18:34:01+00:00,217.0,5.6,221.0,6.54,13.92,47.59359,-54.27349
2021-09-02 18:44:01+00:00,217.0,5.61,220.0,6.53,13.92,47.59359,-54.27349
2021-09-02 18:54:01+00:00,209.0,5.67,212.0,6.26,13.92,47.59359,-54.27349
2021-09-02 19:04:01+00:00,209.0,5.6,209.0,6.61,13.92,47.59359,-54.27349
2021-09-02 19:14:01+00:00,215.0,5.48,219.0,6.33,13.76,47.59359,-54.27349
2021-09-02 19:24:01+00:00,218.0,5.4,228.0,6.3,13.76,47.59359,-54.27349
2021-09-02 19:34:01+00:00,219.0,5.04,223.0,5.81,13.76,47.59359,-54.27349
2021-09-02 19:44:01+00:00,218.0,6.36,220.0,7.33,13.76,47.59359,-54.27349
2021-09-02 19:54:01+00:00,208.0,5.9,207.0,6.49,13.76,47.59359,-54.27349
2021-09-02 20:04:01+00:00,213.0,5.46,214.0,6.38,13.76,47.59359,-54.27349
2021-09-02 20:14:01+00:00,214.0,5.46,214.0,6.05,13.44,47.59359,-54.27349
2021-09-02 20:24:01+00:00,211.0,5.69,216.0,6.69,13.44,47.59359,-54.27349
2021-09-02 20:34:01+00:00,210.0,5.01,211.0,5.76,13.44,47.59359,-54.27349
2021-09-02 20:44:01+00:00,207.0,5.2,210.0,5.74,13.44,47.59359,-54.27349
2021-09-02 20:54:01+00:00,205.0,5.02,202.0,5.35,13.44,47.59359,-54.27349
2021-09-02 21:04:01+00:00,190.0,4.8,193.0,5.21,13.44,47.59359,-54.27349
2021-09-02 21:14:01+00:00,181.0,3.96,184.0,4.52,13.29,47.59359,-54.27349
2021-09-02 21:24:01+00:00,168.0,5.69,168.0,6.2,13.29,47.59359,-54.27349
2021-09-02 21:34:01+00:00,169.0,4.52,167.0,4.89,13.29,47.59359,-54.27349
2021-09-02 21:44:01+00:00,176.0,4.04,177.0,4.32,13.29,47.59359,-54.27349
2021-09-02 21:54:01+00:00,184.0,3.79,186.0,4.02,13.29,47.59359,-54.27349
2021-09-02 22:04:01+00:00,175.0,4.08,177.0,4.33,13.29,47.59359,-54.27349
2021-09-02 22:14:01+00:00,175.0,3.39,177.0,3.68,12.73,47.59359,-54.27349
2021-09-02 22:24:01+00:00,184.0,2.7,183.0,3.03,12.73,47.59359,-54.27349
2021-09-02 22:34:01+00:00,191.0,2.16,189.0,2.55,12.73,47.59359,-54.27349
2021-09-02 22:44:01+00:00,188.0,1.2,190.0,1.27,12.73,47.59359,-54.27349
2021-09-02 22:54:01+00:00,102.0,0.51,99.0,0.69,12.73,47.59359,-54.27349
2021-09-02 23:04:01+00:00,69.0,1.42,75.0,1.64,12.73,47.59359,-54.27349
2021-09-02 23:14:00+00:00,54.0,2.64,61.0,2.89,12.65,47.59359,-54.27349
2021-09-02 23:24:00+00:00,69.0,3.75,72.0,4.15,12.65,47.59359,-54.27349
2021-09-02 23:34:00+00:00,89.0,2.59,89.0,4.51,12.65,47.59359,-54.27349
2021-09-02 23:44:00+00:00,95.0,2.51,97.0,4.2,12.65,47.59359,-54.27349
2021-09-02 23:54:00+00:00,123.0,4.16,125.0,4.78,12.65,47.59359,-54.27349
